Gonzalo Davila

Chefscout - Santiago Wanderers
4 Apr 2027
Sonntag
Verarbeitung

Persönlichkeit

Anpassungsfähigkeit (5) Ehrgeiz (7) Kontroverse (14) Loyalität (4) Druck (14) Professionalität (1) Fairness (10) Temperament (20)

Profil

Trainerstil Demokratisch
Lizenz Nationale B
Entschlossenheit 6
Menschenführung 9
Motivation 3
Disziplin 7
Arbeitszufriedenheit
50%
Ermüdung
0%
Rolle Chefscout
Gehalt 52.9K p/W
Vertrag 14.03.2029

Leistung

Verhalten Normal
Trainingseffektivität
14%
Spielerentwicklung
15%
Verletzungsprävention
15%
Taktische Umsetzung
55%

Letzte Ereignisse

Nahm an einer Scouting-Besprechung teil 7T her
Nahm an einer Scouting-Besprechung teil 7T her
Nahm an einer Scouting-Besprechung teil 14T her
Nahm an einer Scouting-Besprechung teil 14T her
Nahm an einer Scouting-Besprechung teil 21T her
Nahm an einer Scouting-Besprechung teil 21T her
Nahm an einer Scouting-Besprechung teil 28T her
Nahm an einer Scouting-Besprechung teil 28T her

Aktuell beobachtet

171
Spieler Verein Status Fähigkeit Vertrauen Beobachtet Zuletzt beobachtet Letzte Stimme
Luis Ureta San Luis Aktiv 105 / 105 30% 1 / 1m 17.03.2027 -
Siro Rosané Estudiantes Aktiv 124 / 104 40% 1 06.01.2027 -
Alessandro Bianco Modena Aktiv 138 / 147 40% 1 06.01.2027 -
Brendan Wiredu Plymouth Argyle Aktiv 99 / 127 40% 1 06.01.2027 -
Diego Murillo Málaga Aktiv 120 / 117 40% 1 29.12.2026 -
Michael Vadulli Audax Italiano Verloren 104 / 112 65% 1 01.12.2026 -
Juan Rocca Gimnasia y Tiro Aktiv 102 / 106 40% 2 29.11.2026 -
Santiago Rodríguez Gimnasia y Esgrima Aktiv 116 / 126 40% 2 28.11.2026 -
Luciano Cosentino Wanderers Aktiv 127 / 119 40% 2 28.11.2026 -
Renzo Reynaga Patronato Aktiv 103 / 112 40% 1 28.11.2026 -
Sam Nombe Milton Keynes Dons Aktiv 103 / 122 40% 2 27.11.2026 -
Mauro Valiente Estudiantes Aktiv 108 / 116 40% 2 27.11.2026 -
Luca Martínez Dupuy Godoy Cruz Aktiv 113 / 120 40% 2 27.11.2026 -
Junior Hernández AIK Aktiv 120 / 113 40% 2 25.11.2026 -
Luis Palma Lech Aktiv 128 / 145 40% 2 25.11.2026 -
Max Fenger IFK Goteborg Aktiv 131 / 120 40% 1 25.11.2026 -
Javi Zarzo Viitorul Aktiv 85 / 114 40% 1 25.11.2026 -
Antony Medrano Dobrudzha Aktiv 99 / 80 40% 3 21.11.2026 -
Rodrigo Bogarín Barracas Central Aktiv 119 / 106 40% 2 21.11.2026 -
Duván Riascos Jihlava Aktiv 82 / 99 40% 1 20.11.2026 -
Esteban Obregón Montevideo City Torque Aktiv 108 / 117 40% 1 19.11.2026 -
Thiago Calone All Boys Aktiv 105 / 101 40% 1 18.11.2026 -
Lucio Castillo Colegiales Aktiv 100 / 121 40% 1 18.11.2026 -
José Barreto Fehervar Aktiv 103 / 102 40% 1 17.11.2026 -
Jonás Acevedo Instituto Aktiv 123 / 112 40% 1 17.11.2026 -
Matías Sosa Arsenal Aktiv 114 / 98 40% 1 17.11.2026 -
Agustín Sández Rosario Central Aktiv 126 / 135 40% 1 17.11.2026 Mehr Infos nötig
Marcos Cuenca Zaragoza Aktiv 113 / 109 40% 2 15.11.2026 -
Leandro Suhr Boston River Aktiv 118 / 131 40% 1 13.11.2026 -
Jacob Brown Luton Town Aktiv 109 / 90 40% 1 13.11.2026 -
Santiago Rosales Mitre Aktiv 114 / 110 40% 2 12.11.2026 -
Dale Taylor Blackpool Aktiv 116 / 108 40% 1 12.11.2026 -
Facundo Krüger Temperley Aktiv 112 / 101 40% 1 12.11.2026 -
Juan Pablo Gallego Fehervar Aktiv 119 / 88 40% 1 12.11.2026 -
Angelo Gattermayer Wolfsberger AC Aktiv 124 / 106 40% 2 11.11.2026 -
Agustín Ramírez Inter Aktiv 117 / 110 40% 1 11.11.2026 -
Ramiro Ruiz Rodríguez Atlético Tucumán Aktiv 119 / 133 40% 3 09.11.2026 -
Martín Garnerone Estudiantes Aktiv 118 / 109 40% 2 09.11.2026 -
Franco Fagúndez Estudiantes Aktiv 117 / 116 40% 2 08.11.2026 -
Daniel Karlsbakk Sarpsborg 08 Aktiv 121 / 113 40% 1 08.11.2026 -
Wladimir Cid NK Zavrc Aktiv 80 / 66 40% 1 08.11.2026 -
Julián Cosi Madryn Aktiv 120 / 101 40% 1 07.11.2026 -
Juan Infante Atlético Tucumán Aktiv 119 / 115 40% 1 07.11.2026 -
Fernando Valenzuela Queretaro Aktiv 131 / 124 40% 1 07.11.2026 -
Favio Cabral Mitre Aktiv 112 / 117 40% 1 06.11.2026 -
Andreas Helmersen Bodo/Glimt Aktiv 134 / 124 40% 1 06.11.2026 -
Diego Valencia Gornik Leczna Aktiv 102 / 130 40% 4 04.11.2026 -
Juan Cruz Zurbriggen San Telmo Aktiv 99 / 92 40% 1 04.11.2026 -
Ezequiel Almirón Estudiantes Aktiv 119 / 112 40% 2 03.11.2026 -
Ivo Costantino Danubio Aktiv 104 / 124 40% 2 01.11.2026 -
Antony Alonso Deportivo Riestra Aktiv 122 / 107 40% 1 01.11.2026 -
Jano Coronel Quilmes Aktiv 100 / 118 40% 1 01.11.2026 -
Ciprian Coman Pandurii Aktiv 105 / 123 40% 1 31.10.2026 -
Rodrigo González Mitre Aktiv 112 / 109 40% 1 31.10.2026 -
Gabriel Báez Talleres Aktiv 115 / 114 40% 1 31.10.2026 -
César Pérez Defensa y Justicia Aktiv 117 / 127 40% 1 31.10.2026 -
Enzo Trinidad Colegiales Aktiv 111 / 105 40% 1 30.10.2026 -
Santiago Martínez Godoy Cruz Aktiv 116 / 116 40% 1 30.10.2026 -
Lucas Cano All Boys Aktiv 106 / 111 40% 1 29.10.2026 -
Axel Guerra Chacarita Juniors Aktiv 109 / 112 40% 1 29.10.2026 -
Hernán Luna NK Domzale Aktiv 92 / 116 40% 2 27.10.2026 -
Vicente Poggi Godoy Cruz Aktiv 117 / 136 40% 1 26.10.2026 -
Francisco Maidana Gimnasia y Esgrima Aktiv 106 / 105 40% 1 26.10.2026 -
Ramón González Almirante Brown Aktiv 118 / 118 40% 1 26.10.2026 -
Alan Martínez Petrolul Aktiv 96 / 100 40% 1 26.10.2026 -
Paulos Abraham Hammarby Aktiv 118 / 129 40% 1 25.10.2026 -
Gonzalo Flores Almirante Brown Aktiv 109 / 124 40% 1 23.10.2026 -
Alexander Díaz Deportivo Riestra Aktiv 118 / 120 40% 1 23.10.2026 -
Nicolás Molina Temperley Aktiv 100 / 121 40% 1 22.10.2026 -
Franco García Colón Aktiv 110 / 119 40% 1 21.10.2026 -
Alexandr Sojka Viktoria Plzen Aktiv 127 / 105 40% 2 20.10.2026 -
Seedy Jatta Sturm Graz Aktiv 124 / 139 40% 1 20.10.2026 -
Clemente Montes Universidad Catolica Aktiv 127 / 111 40% 5 19.10.2026 -
Bautista Arricau OB Aktiv 103 / 108 40% 2 16.10.2026 -
Aaron Spetale AGF Aktiv 111 / 120 40% 1 16.10.2026 -
Peter Christiansen Viking Aktiv 111 / 114 40% 1 15.10.2026 -
Danyil Alefirenko Chornomorets Aktiv 97 / 124 40% 2 14.10.2026 -
Derrick Etienne Jr. Toronto FC Aktiv 118 / 102 40% 2 14.10.2026 -
Francisco González Metilli Belgrano Aktiv 133 / 122 40% 1 14.10.2026 -
Ali Soliman Masr El Makasa Aktiv 111 / 137 40% 1 14.10.2026 -
Ante Roguljić Diosgyor Aktiv 128 / 137 40% 1 14.10.2026 -
César Magallan Estudiantes de Merida Aktiv 104 / 113 40% 3 13.10.2026 -
Jerónimo Porto Lapegüe Slask Aktiv 96 / 94 40% 3 13.10.2026 -
Carlos Paraco Metalist Aktiv 98 / 124 40% 1 13.10.2026 -
Lucas Pazos Kolkheti Aktiv 95 / 75 40% 1 12.10.2026 -
Ronaldo Peña Deportivo Lara Aktiv 106 / 114 40% 3 10.10.2026 -
Tedi Cara LNZ Aktiv 126 / 128 40% 1 10.10.2026 -
Gleyfer Medina Los Angeles Football Club Aktiv 96 / 118 40% 2 09.10.2026 -
Adalberto Peñaranda Deportivo Tachira Aktiv 110 / 109 40% 1 09.10.2026 -
Junior Paredes Trujillanos Aktiv 106 / 109 40% 1 09.10.2026 -
Lucas González Nacional Aktiv 103 / 103 40% 4 07.10.2026 -
Francisco Manenti Metropolitanos Aktiv 113 / 109 40% 1 07.10.2026 -
Adrian Svanbäck BK Hacken Aktiv 129 / 133 40% 1 07.10.2026 -
Andrés Dieppa Zugdidi Aktiv 86 / 101 40% 1 06.10.2026 -
Mauricio Cardillo San Lorenzo Aktiv 115 / 131 40% 1 05.10.2026 -
Diego García Sparta Prague Aktiv 124 / 110 40% 1 05.10.2026 -
Matías Pellegrini Vélez Aktiv 115 / 112 40% 1 05.10.2026 -
Ignacio Sabatini Gimnasia y Esgrima Aktiv 111 / 100 40% 2 03.10.2026 -
Razvan Puscas Astra Aktiv 105 / 94 40% 1 03.10.2026 -
Brayan Alcócer Rubin Aktiv 90 / 100 40% 1 03.10.2026 -
Matías Mansilla Yenisey Aktiv 95 / 83 40% 2 29.09.2026 -
Joshuan Berríos Carabobo Aktiv 98 / 92 40% 3 28.09.2026 -
Lazar Mijović Cukaricki Aktiv 102 / 126 40% 1 28.09.2026 -
Sergio Riffo Kolkheti Aktiv 93 / 71 40% 3 26.09.2026 -
Chico Banza Zamalek Aktiv 104 / 116 40% 1 26.09.2026 -
Mariano Peralta Bauer HNK Rijeka Aktiv 98 / 88 40% 4 23.09.2026 -
Freddy Noguera Cerro Porteno Aktiv 103 / 110 40% 1 23.09.2026 -
Timothy Zechariah Rivers United Aktiv 103 / 98 40% 1 23.09.2026 -
Vladislav Blănuţă Lechia Aktiv 111 / 104 40% 2 19.09.2026 -
Federico Ortiz Gornik Leczna Aktiv 97 / 102 40% 1 19.09.2026 -
Fortune Bassey Rivers United Aktiv 92 / 100 40% 1 19.09.2026 -
Marcelo Torres Gimnasia La Plata Aktiv 121 / 118 40% 1 18.09.2026 -
Juan Cruz Martins Minnesota United FC Aktiv 107 / 92 40% 1 17.09.2026 -
Shuaibu Ibrahim Wikki Tourists Aktiv 99 / 89 40% 1 17.09.2026 -
Félix Villacorta Orenburg Aktiv 91 / 104 40% 1 16.09.2026 -
Thiago Perugini San Lorenzo Aktiv 95 / 108 40% 1 14.09.2026 -
Oleksii Hutsuliak Polissia Aktiv 132 / 112 40% 1 13.09.2026 -
José Balza Deportivo Tachira Aktiv 112 / 101 40% 1 13.09.2026 -
Alexander Rondón Oliveros Deportivo Tachira Aktiv 93 / 107 40% 2 12.09.2026 -
Agustín Venezia Iquique Aktiv 99 / 104 40% 1 12.09.2026 -
José Barragán Zamora Aktiv 98 / 104 40% 1 12.09.2026 -
Jacobo Escobar Sokol Aktiv 80 / 105 40% 2 10.09.2026 -
Pedro Silva Torrejón Gimnasia La Plata Aktiv 119 / 106 40% 2 08.09.2026 -
Cristhián Rivas Estudiantes de Merida Aktiv 112 / 125 40% 2 08.09.2026 -
Diego Sánchez Gijón Aktiv 97 / 118 40% 1 08.09.2026 -
Elián Giménez Sarmiento Aktiv 107 / 129 40% 1 08.09.2026 -
Agustín Cardoso Patronato Aktiv 89 / 92 40% 1 06.09.2026 -
Víctor Rivarola Guarani Aktiv 87 / 90 40% 1 06.09.2026 -
Brayan Hurtado Antofagasta Aktiv 93 / 89 40% 1 03.09.2026 -
Mauricio Márquez Caracas Aktiv 102 / 115 40% 2 31.08.2026 -
Sergio Rondon Atletico Venezuela Aktiv 97 / 92 40% 1 31.08.2026 -
Ismail Sarki Niger Tornadoes Aktiv 84 / 117 40% 1 31.08.2026 -
Erik López Olimpia Aktiv 103 / 102 40% 1 30.08.2026 -
Bruno Caicedo Vancouver Whitecaps Aktiv 103 / 121 40% 1 29.08.2026 -
Luciano Arriagada Huachipato Aktiv 97 / 101 40% 1 29.08.2026 -
Agustín Occhiato IFK Norrkoping Aktiv 86 / 70 40% 1 29.08.2026 -
Valentín Robaldo Alianza Atletico Aktiv 93 / 109 40% 1 28.08.2026 -
Julián Rodríguez Seguer Iquique Aktiv 91 / 82 40% 1 28.08.2026 -
Enzo Larrosa Independiente Medellin Aktiv 108 / 105 40% 1 27.08.2026 -
David Miculescu FCSB Aktiv 118 / 99 40% 1 26.08.2026 -
Johar Mejía Rapid Wien Aktiv 106 / 127 40% 1 26.08.2026 -
Tobías Donsanti Slovan Liberec Aktiv 112 / 111 40% 2 20.08.2026 -
Pablo Fernández Sol de America Aktiv 102 / 104 40% 1 20.08.2026 -
Richard Torales Guarani Aktiv 105 / 103 40% 1 19.08.2026 -
Piero Magallanes Sport Huancayo Aktiv 97 / 86 40% 1 18.08.2026 -
Ronny Maza Aragua Aktiv 100 / 107 40% 1 17.08.2026 -
Andrés Molinas Omonoia Aktiv 101 / 99 40% 1 17.08.2026 -
Mamadou Traoré Castellón Aktiv 87 / 83 40% 1 13.08.2026 -
Mauro Schönfeld Stjarnan Aktiv 111 / 110 40% 1 11.08.2026 -
Carlos Faya Deportivo La Guaira Aktiv 105 / 94 40% 1 08.08.2026 -
Leonel Valencia Ayacucho Aktiv 90 / 85 40% 1 08.08.2026 -
Alexis Steimbach Gimnasia La Plata Aktiv 126 / 119 40% 1 08.08.2026 -
Agustín Obregón River Plate Aktiv 103 / 113 40% 1 07.08.2026 -
Richard Celis Zamora Aktiv 112 / 119 40% 1 07.08.2026 -
Gonzalo Larrazábal Deportivo Maldonado Aktiv 93 / 95 40% 1 07.08.2026 -
Stefan Džodić Almería Aktiv 103 / 83 40% 1 06.08.2026 -
Duván Mósquera Aguilas Doradas Aktiv 104 / 93 40% 1 06.08.2026 -
David Barbona Defensa y Justicia Aktiv 131 / 134 40% 1 06.08.2026 -
Tobías Bovone Deportivo Pereira Aktiv 115 / 124 40% 1 05.08.2026 -
Mario Maroto Valladolid Aktiv 107 / 135 40% 1 05.08.2026 -
Rodney Chirinos Deportivo Lara Aktiv 91 / 102 40% 1 05.08.2026 -
Pepe Sánchez Albacete Aktiv 104 / 98 40% 1 05.08.2026 -
Luis Del Pino Mago Caracas Aktiv 127 / 130 40% 1 03.08.2026 -
Sebastián Lojas Deportivo Municipal Aktiv 105 / 97 40% 1 03.08.2026 -
Lucas González Sportivo Trinidense Aktiv 97 / 99 40% 1 03.08.2026 -
Francisco Romero Estudiantes Aktiv 103 / 107 40% 1 01.08.2026 -
Hugo Ancajima Universitario Aktiv 112 / 120 40% 1 01.08.2026 -
Edwuin Cetré Estudiantes Aktiv 123 / 122 40% 1 01.08.2026 -
Jorge Recalde Guarani Aktiv 125 / 118 40% 1 01.08.2026 -
Luis Iberico Sporting Cristal Aktiv 107 / 113 40% 1 01.08.2026 -
Alexis Canelo Atlético Tucumán Aktiv 126 / 114 40% 1 01.08.2026 -